Epoch = 2015 Feb. 27.0 TT T = 2015 Mar. 10.15371 TT Peri. = 196.60342 e = 0.4650167 Node = 119.89850 2000.0 q = 2.1694469 AU Incl. = 12.22038 a = 4.0551675 AU n = 0.12069544 P = 8.17 years
m1 = 14.0 + 5 log d + 10.0 log r